Location: Holcomb Observatory
(44.4922°N, 73.1654°W)
Time: 07:22:01
(UTC-05:00)

Daily predictions for brighter satellites

Satellite Brightness Start Highest point End
(mag) Time Altitude Azimuth Time Altitude Azimuth Time Altitude Azimuth
Cosmos 2219 4.2 17:58:55 10° SSE 18:03:31 25° ESE 18:08:08 10° NE
Meteor 1-25 Rocket 4.5 17:58:16 10° SSW 18:03:54 80° WNW 18:09:39 10° N
BREEZE-M DEB (TANK) 3.1 18:03:46 10° WNW 18:06:20 51° NNE 18:12:07 10° E
Cosmos 1954 Rocket 4.0 18:02:23 10° S 18:07:30 63° ESE 18:12:41 10° NNE
Cosmos 2181 Rocket 4.1 18:01:27 10° N 18:07:36 54° ENE 18:13:48 10° SSE
Cosmos 1536 3.9 18:05:13 10° SE 18:08:23 23° E 18:11:33 10° NE
Okean 2 Rocket 4.4 18:05:34 10° SSW 18:09:49 45° WNW 18:14:05 10° N
Okean 1 3.5 18:06:01 10° N 18:10:06 81° W 18:14:09 10° S
HJ-1C 4.4 18:12:45 10° SE 18:15:36 26° ENE 18:18:28 10° NNE
Cosmos 1709 Rocket 3.9 18:13:22 10° S 18:19:32 73° E 18:25:41 10° NNE
Okean 1 Rocket 3.4 18:20:25 10° SSE 18:24:41 46° E 18:29:00 10° NNE
Cosmos 1602 3.7 18:23:56 10° S 18:27:48 71° E 18:31:43 10° NNE
Cosmos 2151 Rocket 4.3 18:24:58 10° SSW 18:29:24 59° W 18:33:55 10° N
Meteor 1-11 Rocket 3.8 18:23:42 10° S 18:29:26 64° E 18:35:19 10° NNE
Cosmos 1340 3.1 18:27:39 10° NNW 18:31:26 67° W 18:35:10 10° S
Cosmos 1833 4.3 18:26:12 10° SSW 18:31:55 86° WNW 18:37:35 10° NNE
Cosmos 1025 Rocket 3.5 18:29:53 10° N 18:34:01 38° ENE 18:38:07 10° SE
ALOS 2.3 18:31:16 10° SSE 18:35:49 56° ENE 18:40:25 10° N
Cosmos 1023 Rocket 4.4 18:31:20 10° SSW 18:36:26 86° ESE 18:41:37 10° NNE
USA 186 3.9 18:38:04 11° NE 18:38:04 11° NE 18:38:17 10° NE
Cosmos 2333 Rocket 3.0 18:32:37 10° N 18:37:45 32° NE 18:41:50 15° ESE
FENGYUN 3A 3.6 18:44:52 10° SSE 18:50:16 76° ENE 18:55:43 10° N
Abrixas rocket 2.8 18:48:38 10° SW 18:51:49 41° SSE 18:52:57 29° ESE
FREGAT/IRIS 3.7 18:50:46 10° S 18:53:45 48° W 18:56:47 10° NNW
NOSS 0 Rocket 4.3 18:47:58 10° NNW 18:53:50 44° NE 18:58:02 18° ESE
Cosmos 2285 Rocket 4.1 18:47:40 10° NNW 18:54:04 61° ENE 19:00:24 10° SE
Cosmos 1741 Rocket 3.9 18:48:52 10° SSW 18:54:04 75° ESE 18:59:18 10° NNE
Genesis I 3.9 18:51:26 10° NW 18:55:18 55° WSW 18:59:09 10° SSE
GEOS 3 Rocket 4.0 18:51:19 12° NE 18:55:55 42° ESE 19:00:53 10° SSW
Okean 1-7 Rocket 3.6 18:51:55 10° N 18:56:28 87° E 19:00:57 10° S
GPS 2-04 Rocket1 4.5 18:57:00 10° SW 19:00:24 23° S 19:01:59 19° SE
FengYun 1-2 T 4.2 18:58:50 10° SSE 19:04:19 85° WSW 19:09:53 10° NNW
Meteor 1-5 Rocket 4.3 18:58:36 10° S 19:04:30 65° E 19:10:19 10° NNE
Cosmos 1633 4.4 19:02:02 10° SW 19:05:26 34° WNW 19:08:50 10° N
Cosmos 1140 Rocket 4.3 19:02:59 10° SW 19:07:59 52° WNW 19:13:03 10° NNE
Cosmos 614 Rocket 4.4 19:06:07 10° SSW 19:11:09 63° WNW 19:16:12 10° NNE
ATLAS CENTAUR R/B 3.3 19:12:47 10° SSW 19:14:33 17° S 19:14:33 17° S
Cosmos 405 Rocket 2.7 19:18:13 10° N 19:22:18 69° ENE 19:23:33 41° SSE
Cosmos 468 Rocket 3.9 19:17:27 10° NNW 19:22:42 68° ENE 19:25:21 29° SE
USA 229 DEB 3.9 19:16:41 10° NW 19:23:50 80° SW 19:29:53 16° SSE
USA 229 3.9 19:16:47 10° NW 19:23:56 81° SW 19:29:56 16° SSE
Helios 1A 2.8 19:23:44 32° SSE 19:25:35 75° ENE 19:29:45 10° N
Okean 2 3.4 19:21:36 10° N 19:25:48 86° W 19:29:22 14° S
CZ-2D R/B 3.2 19:23:59 20° S 19:26:35 81° WSW 19:30:25 10° NNW
Cosmos 2237 Rocket 2.3 19:20:58 10° NNW 19:26:35 53° ENE 19:28:14 40° ESE
COSMOS 2428 3.4 19:22:17 10° NNW 19:27:49 55° WSW 19:33:21 10° S
H-2A R/B 3.3 19:24:15 10° S 19:27:53 57° W 19:31:37 10° NNW
Spot 2 Rocket 3.9 19:22:57 10° S 19:27:58 64° WSW 19:33:01 10° NNW
Helios 1B rocket 2.4 19:24:30 10° NNE 19:28:38 61° E 19:32:43 10° S
Gbstr 26 Del rocket 3.1 19:24:56 10° WSW 19:28:38 54° NNW 19:29:29 43° NNE
Cosmos 2297 Rocket 4.1 19:25:37 10° SSE 19:26:20 13° SSE 19:26:20 13° SSE
NOSS 3-1 (A) 4.2 19:29:09 10° NNW 19:36:26 54° NE 19:39:19 38° E
Resurs 01 Rocket 2.7 19:32:35 10° S 19:36:47 45° W 19:41:02 10° NNW
Cosmos 2219 Rocket 2.2 19:34:45 10° NNW 19:40:22 76° WSW 19:43:37 26° SSE
Cosmos 1610 Rocket 4.4 19:34:45 10° S 19:40:58 90° W 19:47:11 10° N
ATLAS 2AS CENTAUR R/B 4.1 19:34:42 10° NNW 19:41:30 28° NNE 19:43:50 24° NE
Cosmos 1814 Rocket 3.8 19:37:23 10° NNW 19:42:34 75° ENE 19:43:32 58° SE
ERS-1 Rocket 3.9 19:45:15 32° NNE 19:45:15 32° NNE 19:48:34 10° N
Envisat 2.9 19:44:07 61° E 19:44:23 62° ENE 19:49:24 10° N
USA 32 4.1 19:40:32 10° N 19:45:17 55° ENE 19:45:17 55° ENE
Cosmos 2219 4.0 19:41:43 10° SW 19:47:19 52° WNW 19:52:56 10° NNE
Cosmos 2227 Rocket 2.4 19:45:01 10° S 19:49:27 49° SSE 19:49:27 49° SSE
NOSS 3-1 (C) 3.9 19:47:29 10° NW 19:55:02 79° NE 19:57:53 45° SE
SL-16 R/B 2.8 19:56:08 10° NNW 20:00:37 41° NNE 20:00:37 41° NNE
Cosmos 332 Rocket 4.3 19:59:17 10° NNW 20:03:00 50° N 20:03:00 50° N
Cosmos 371 Rocket 4.4 20:09:36 10° NNW 20:12:36 36° N 20:12:36 36° N
H-2A R/B 4.4 20:21:53 14° NNE 20:21:53 14° NNE 20:22:45 10° N
Cosmos 2333 Rocket 3.1 20:16:43 10° NW 20:22:10 44° WSW 20:23:54 35° SSW
Cosmos 1980 4.3 20:20:01 10° NW 20:25:28 51° WSW 20:26:08 49° SW
Cosmos 841 Rocket 4.1 20:20:44 10° NNW 20:24:32 50° NNW 20:24:32 50° NNW
Cosmos 1763 Rocket 4.4 20:32:23 10° NNW 20:36:23 45° WNW 20:36:23 45° WNW
Cosmos 2341 Rocket 4.4 20:31:23 10° SSW 20:37:39 61° WNW 20:44:00 10° N
Cosmos 2237 Rocket 4.0 21:05:44 10° NW 21:10:07 25° W 21:10:07 25° W
ATLAS 2AS CENTAUR R/B 3.8 21:25:48 10° NW 21:31:17 46° NNW 21:31:17 46° NNW
